Time,TemperatureF,DewpointF,PressureIn,WindDirection,WindDirectionDegrees,WindSpeedMPH,WindSpeedGustMPH,Humidity,HourlyPrecipIn,Conditions,Clouds,dailyrainin,SoftwareType,DateUTC
2013-07-10 00:01:00,81.6,75.3,29.95,South,187,2.0,4.0,81,0.00,,,0.00,WUHU216DAVISVP2,2013-07-10 05:01:00,
2013-07-10 00:06:00,81.7,75.3,29.95,South,188,2.0,4.0,81,0.00,,,0.00,WUHU216DAVISVP2,2013-07-10 05:06:00,
2013-07-10 00:11:00,81.8,75.5,29.94,SSW,207,5.0,6.0,81,0.00,,,0.00,WUHU216DAVISVP2,2013-07-10 05:11:00,
2013-07-10 00:16:00,81.9,75.2,29.94,SSW,208,5.0,6.0,80,0.00,,,0.00,WUHU216DAVISVP2,2013-07-10 05:16:00,
2013-07-10 00:21:00,81.8,75.5,29.94,SSW,203,3.0,5.0,81,0.00,,,0.00,WUHU216DAVISVP2,2013-07-10 05:21:00,
2013-07-10 00:26:00,81.7,75.4,29.94,SSW,194,2.0,5.0,81,0.00,,,0.00,WUHU216DAVISVP2,2013-07-10 05:26:00,
2013-07-10 00:31:00,81.7,75.3,29.94,South,174,3.0,6.0,81,0.00,,,0.00,WUHU216DAVISVP2,2013-07-10 05:31:00,
2013-07-10 00:36:00,81.7,75.3,29.94,SW,217,4.0,6.0,81,0.00,,,0.00,WUHU216DAVISVP2,2013-07-10 05:36:00,
2013-07-10 00:41:00,81.7,75.3,29.94,South,176,4.0,5.0,81,0.00,,,0.00,WUHU216DAVISVP2,2013-07-10 05:41:00,
2013-07-10 00:46:00,81.6,75.2,29.94,SSE,153,4.0,6.0,81,0.00,,,0.00,WUHU216DAVISVP2,2013-07-10 05:46:00,
2013-07-10 00:51:00,81.5,75.2,29.93,South,188,2.0,6.0,81,0.00,,,0.00,WUHU216DAVISVP2,2013-07-10 05:51:00,
2013-07-10 00:56:00,81.5,75.2,29.93,SSW,197,3.0,6.0,81,0.00,,,0.00,WUHU216DAVISVP2,2013-07-10 05:56:00,
2013-07-10 01:01:00,81.4,75.5,29.93,SSW,207,2.0,6.0,82,0.00,,,0.00,WUHU216DAVISVP2,2013-07-10 06:01:00,
2013-07-10 01:06:00,81.4,75.5,29.93,SSW,209,4.0,8.0,82,0.00,,,0.00,WUHU216DAVISVP2,2013-07-10 06:06:00,
2013-07-10 01:11:00,81.4,75.5,29.94,SW,219,3.0,8.0,82,0.00,,,0.00,WUHU216DAVISVP2,2013-07-10 06:11:00,
2013-07-10 01:16:00,81.4,75.5,29.93,SW,214,3.0,7.0,82,0.00,,,0.00,WUHU216DAVISVP2,2013-07-10 06:16:00,
2013-07-10 01:21:00,81.4,75.1,29.93,SSW,201,5.0,7.0,81,0.00,,,0.00,WUHU216DAVISVP2,2013-07-10 06:21:00,
2013-07-10 01:26:00,81.3,75.4,29.93,SSW,201,2.0,7.0,82,0.00,,,0.00,WUHU216DAVISVP2,2013-07-10 06:26:00,
2013-07-10 01:31:00,81.1,75.1,29.93,SSW,204,3.0,6.0,82,0.00,,,0.00,WUHU216DAVISVP2,2013-07-10 06:31:00,
2013-07-10 01:36:00,81.0,75.1,29.93,SSW,207,4.0,6.0,82,0.00,,,0.00,WUHU216DAVISVP2,2013-07-10 06:36:00,
2013-07-10 01:41:00,80.8,75.2,29.93,SSW,202,2.0,5.0,83,0.00,,,0.00,WUHU216DAVISVP2,2013-07-10 06:41:00,
2013-07-10 01:46:00,80.7,75.1,29.93,SSW,208,2.0,4.0,83,0.00,,,0.00,WUHU216DAVISVP2,2013-07-10 06:46:00,
2013-07-10 01:51:00,80.5,75.3,29.93,SSW,194,3.0,4.0,84,0.00,,,0.00,WUHU216DAVISVP2,2013-07-10 06:51:00,
2013-07-10 01:56:00,80.3,75.1,29.93,South,176,2.0,4.0,84,0.00,,,0.00,WUHU216DAVISVP2,2013-07-10 06:56:00,
2013-07-10 02:01:00,80.2,75.0,29.93,SSW,194,3.0,4.0,84,0.00,,,0.00,WUHU216DAVISVP2,2013-07-10 07:01:00,
2013-07-10 02:06:00,80.1,74.9,29.93,SSW,201,2.0,5.0,84,0.00,,,0.00,WUHU216DAVISVP2,2013-07-10 07:06:00,
2013-07-10 02:11:00,79.9,75.0,29.93,SSW,202,3.0,5.0,85,0.00,,,0.00,WUHU216DAVISVP2,2013-07-10 07:11:00,
2013-07-10 02:16:00,79.8,74.9,29.92,SSW,203,1.0,4.0,85,0.00,,,0.00,WUHU216DAVISVP2,2013-07-10 07:16:00,
2013-07-10 02:21:00,79.7,74.8,29.93,SSW,196,3.0,4.0,85,0.00,,,0.00,WUHU216DAVISVP2,2013-07-10 07:21:00,
2013-07-10 02:26:00,79.6,75.0,29.93,SSW,202,3.0,4.0,86,0.00,,,0.00,WUHU216DAVISVP2,2013-07-10 07:26:00,
2013-07-10 02:31:00,79.4,74.8,29.93,SSW,195,3.0,5.0,86,0.00,,,0.00,WUHU216DAVISVP2,2013-07-10 07:31:00,
2013-07-10 02:36:00,79.3,74.8,29.93,SSW,193,2.0,5.0,86,0.00,,,0.00,WUHU216DAVISVP2,2013-07-10 07:36:00,
2013-07-10 02:41:00,79.3,74.7,29.93,SSW,198,4.0,6.0,86,0.00,,,0.00,WUHU216DAVISVP2,2013-07-10 07:41:00,
2013-07-10 02:46:00,79.2,74.6,29.93,SSW,207,3.0,6.0,86,0.00,,,0.00,WUHU216DAVISVP2,2013-07-10 07:46:00,
2013-07-10 02:51:00,79.1,74.9,29.92,South,184,1.0,4.0,87,0.00,,,0.00,WUHU216DAVISVP2,2013-07-10 07:51:00,
2013-07-10 02:56:00,79.1,74.9,29.92,SSW,208,4.0,4.0,87,0.00,,,0.00,WUHU216DAVISVP2,2013-07-10 07:56:00,
2013-07-10 03:01:00,79.0,74.8,29.92,SSW,204,2.0,4.0,87,0.00,,,0.00,WUHU216DAVISVP2,2013-07-10 08:01:00,
2013-07-10 03:06:00,79.0,74.8,29.91,SW,215,3.0,5.0,87,0.00,,,0.00,WUHU216DAVISVP2,2013-07-10 08:06:00,
2013-07-10 03:11:00,78.9,74.7,29.91,South,171,1.0,5.0,87,0.00,,,0.00,WUHU216DAVISVP2,2013-07-10 08:11:00,
2013-07-10 03:16:00,78.8,74.6,29.91,SSW,205,2.0,4.0,87,0.00,,,0.00,WUHU216DAVISVP2,2013-07-10 08:16:00,
2013-07-10 03:21:00,78.8,74.6,29.91,SSW,193,2.0,4.0,87,0.00,,,0.00,WUHU216DAVISVP2,2013-07-10 08:21:00,
2013-07-10 03:26:00,78.7,74.5,29.91,SSW,200,2.0,4.0,87,0.00,,,0.00,WUHU216DAVISVP2,2013-07-10 08:26:00,
2013-07-10 03:31:00,78.6,74.4,29.91,SSW,198,3.0,5.0,87,0.00,,,0.00,WUHU216DAVISVP2,2013-07-10 08:31:00,
2013-07-10 03:36:00,78.5,74.7,29.91,South,185,1.0,5.0,88,0.00,,,0.00,WUHU216DAVISVP2,2013-07-10 08:36:00,
2013-07-10 03:41:00,78.4,74.6,29.91,SSW,210,4.0,4.0,88,0.00,,,0.00,WUHU216DAVISVP2,2013-07-10 08:41:00,
2013-07-10 03:46:00,78.4,74.6,29.91,SSW,198,2.0,4.0,88,0.00,,,0.00,WUHU216DAVISVP2,2013-07-10 08:46:00,
2013-07-10 03:51:00,78.4,74.6,29.91,SSW,203,2.0,4.0,88,0.00,,,0.00,WUHU216DAVISVP2,2013-07-10 08:51:00,
2013-07-10 03:56:00,78.3,74.5,29.91,SSW,211,2.0,3.0,88,0.00,,,0.00,WUHU216DAVISVP2,2013-07-10 08:56:00,
2013-07-10 04:01:00,78.2,74.4,29.91,SSW,203,2.0,3.0,88,0.00,,,0.00,WUHU216DAVISVP2,2013-07-10 09:01:00,
2013-07-10 04:06:00,78.1,74.3,29.91,SW,230,1.0,3.0,88,0.00,,,0.00,WUHU216DAVISVP2,2013-07-10 09:06:00,
2013-07-10 04:11:00,78.1,74.3,29.90,SSW,213,0.0,2.0,88,0.00,,,0.00,WUHU216DAVISVP2,2013-07-10 09:11:00,
2013-07-10 04:16:00,78.0,74.2,29.90,SSW,193,1.0,2.0,88,0.00,,,0.00,WUHU216DAVISVP2,2013-07-10 09:16:00,
2013-07-10 04:21:00,77.9,74.1,29.90,SSW,192,1.0,2.0,88,0.00,,,0.00,WUHU216DAVISVP2,2013-07-10 09:21:00,
2013-07-10 04:26:00,77.9,74.4,29.90,SSW,205,1.0,2.0,89,0.00,,,0.00,WUHU216DAVISVP2,2013-07-10 09:26:00,
2013-07-10 04:31:00,77.8,74.3,29.90,SSW,208,0.0,2.0,89,0.00,,,0.00,WUHU216DAVISVP2,2013-07-10 09:31:00,
2013-07-10 04:36:00,77.7,74.2,29.90,SSW,207,2.0,2.0,89,0.00,,,0.00,WUHU216DAVISVP2,2013-07-10 09:36:00,
2013-07-10 04:41:00,77.6,74.1,29.91,South,191,2.0,3.0,89,0.00,,,0.00,WUHU216DAVISVP2,2013-07-10 09:41:00,
2013-07-10 04:46:00,77.5,74.0,29.91,SSW,203,2.0,3.0,89,0.00,,,0.00,WUHU216DAVISVP2,2013-07-10 09:46:00,
2013-07-10 04:51:00,77.4,73.9,29.91,SSW,211,2.0,3.0,89,0.00,,,0.00,WUHU216DAVISVP2,2013-07-10 09:51:00,
2013-07-10 04:56:00,77.3,74.1,29.91,SSW,209,2.0,3.0,90,0.00,,,0.00,WUHU216DAVISVP2,2013-07-10 09:56:00,
2013-07-10 05:01:00,77.2,74.0,29.91,South,189,1.0,3.0,90,0.00,,,0.00,WUHU216DAVISVP2,2013-07-10 10:01:00,
2013-07-10 05:06:00,77.1,73.9,29.91,SSW,207,1.0,3.0,90,0.00,,,0.00,WUHU216DAVISVP2,2013-07-10 10:06:00,
2013-07-10 05:11:00,77.1,73.9,29.90,SSW,213,1.0,3.0,90,0.00,,,0.00,WUHU216DAVISVP2,2013-07-10 10:11:00,
2013-07-10 05:16:00,77.0,73.8,29.90,SSW,208,1.0,3.0,90,0.00,,,0.00,WUHU216DAVISVP2,2013-07-10 10:16:00,
2013-07-10 05:21:00,77.0,73.8,29.90,SSW,203,0.0,2.0,90,0.00,,,0.00,WUHU216DAVISVP2,2013-07-10 10:21:00,
2013-07-10 05:26:00,77.0,73.8,29.89,SSW,212,1.0,2.0,90,0.00,,,0.00,WUHU216DAVISVP2,2013-07-10 10:26:00,
2013-07-10 05:31:00,76.9,73.7,29.89,SSW,198,1.0,3.0,90,0.00,,,0.00,WUHU216DAVISVP2,2013-07-10 10:31:00,
2013-07-10 05:36:00,77.0,74.2,29.89,SSW,196,2.0,3.0,91,0.00,,,0.00,WUHU216DAVISVP2,2013-07-10 10:36:00,
2013-07-10 05:41:00,77.1,73.9,29.89,South,169,2.0,3.0,90,0.00,,,0.00,WUHU216DAVISVP2,2013-07-10 10:41:00,
2013-07-10 05:46:00,77.2,74.0,29.89,SSW,202,2.0,4.0,90,0.00,,,0.00,WUHU216DAVISVP2,2013-07-10 10:46:00,
2013-07-10 05:51:00,77.3,74.1,29.89,SW,216,2.0,4.0,90,0.00,,,0.00,WUHU216DAVISVP2,2013-07-10 10:51:00,
2013-07-10 05:56:00,77.4,74.2,29.89,SSW,198,2.0,3.0,90,0.00,,,0.00,WUHU216DAVISVP2,2013-07-10 10:56:00,
2013-07-10 06:01:00,77.5,74.3,29.89,SSW,203,2.0,3.0,90,0.00,,,0.00,WUHU216DAVISVP2,2013-07-10 11:01:00,
2013-07-10 06:06:00,77.6,74.4,29.89,SSW,206,3.0,3.0,90,0.00,,,0.00,WUHU216DAVISVP2,2013-07-10 11:06:00,
2013-07-10 06:11:00,77.7,74.2,29.90,SSW,207,2.0,4.0,89,0.00,,,0.00,WUHU216DAVISVP2,2013-07-10 11:11:00,
2013-07-10 06:16:00,77.9,74.4,29.90,SW,224,4.0,6.0,89,0.00,,,0.00,WUHU216DAVISVP2,2013-07-10 11:16:00,
2013-07-10 06:21:00,77.9,74.4,29.91,SSW,206,3.0,6.0,89,0.00,,,0.00,WUHU216DAVISVP2,2013-07-10 11:21:00,
2013-07-10 06:26:00,78.0,74.5,29.91,SSW,205,2.0,4.0,89,0.00,,,0.00,WUHU216DAVISVP2,2013-07-10 11:26:00,
2013-07-10 06:31:00,78.3,74.5,29.91,SSW,192,3.0,5.0,88,0.00,,,0.00,WUHU216DAVISVP2,2013-07-10 11:31:00,
2013-07-10 06:36:00,78.4,74.6,29.92,SW,219,5.0,6.0,88,0.00,,,0.00,WUHU216DAVISVP2,2013-07-10 11:36:00,
2013-07-10 06:41:00,78.5,74.7,29.92,SW,216,2.0,6.0,88,0.00,,,0.00,WUHU216DAVISVP2,2013-07-10 11:41:00,
2013-07-10 06:46:00,78.4,74.5,29.93,SW,217,4.0,6.0,88,0.00,,,0.00,WUHU216DAVISVP2,2013-07-10 11:46:00,
2013-07-10 06:51:00,78.5,74.6,29.93,SSW,210,4.0,8.0,88,0.00,,,0.00,WUHU216DAVISVP2,2013-07-10 11:51:00,
2013-07-10 06:56:00,78.5,74.6,29.93,SSW,203,2.0,8.0,88,0.00,,,0.00,WUHU216DAVISVP2,2013-07-10 11:56:00,
2013-07-10 07:01:00,78.5,74.7,29.93,WNW,283,0.0,6.0,88,0.00,,,0.00,WUHU216DAVISVP2,2013-07-10 12:01:00,
2013-07-10 07:06:00,78.5,74.7,29.93,WSW,240,0.0,7.0,88,0.00,,,0.00,WUHU216DAVISVP2,2013-07-10 12:06:00,
2013-07-10 07:11:00,78.4,74.6,29.94,SSW,204,4.0,7.0,88,0.00,,,0.00,WUHU216DAVISVP2,2013-07-10 12:11:00,
2013-07-10 07:16:00,78.3,74.5,29.94,WSW,240,3.0,7.0,88,0.00,,,0.00,WUHU216DAVISVP2,2013-07-10 12:16:00,
2013-07-10 07:21:00,78.2,74.4,29.94,NW,309,4.0,8.0,88,0.00,,,0.00,WUHU216DAVISVP2,2013-07-10 12:21:00,
2013-07-10 07:26:00,78.0,74.2,29.94,WNW,289,4.0,8.0,88,0.00,,,0.00,WUHU216DAVISVP2,2013-07-10 12:26:00,
2013-07-10 07:31:00,78.0,74.2,29.95,SSW,201,2.0,9.0,88,0.00,,,0.00,WUHU216DAVISVP2,2013-07-10 12:31:00,
2013-07-10 07:36:00,77.9,74.1,29.95,West,273,1.0,9.0,88,0.00,,,0.00,WUHU216DAVISVP2,2013-07-10 12:36:00,
2013-07-10 07:41:00,77.7,74.2,29.96,WNW,296,2.0,7.0,89,0.00,,,0.00,WUHU216DAVISVP2,2013-07-10 12:41:00,
2013-07-10 07:46:00,77.5,74.0,29.96,West,271,4.0,7.0,89,0.01,,,0.01,WUHU216DAVISVP2,2013-07-10 12:46:00,
2013-07-10 07:51:00,77.2,74.0,29.96,West,262,4.0,7.0,90,0.01,,,0.01,WUHU216DAVISVP2,2013-07-10 12:51:00,
2013-07-10 07:56:00,76.8,73.3,29.96,WSW,250,6.0,7.0,89,0.02,,,0.02,WUHU216DAVISVP2,2013-07-10 12:56:00,
2013-07-10 08:01:00,76.4,72.9,29.95,WNW,300,7.0,8.0,89,0.03,,,0.03,WUHU216DAVISVP2,2013-07-10 13:01:00,
2013-07-10 08:06:00,75.9,72.4,29.94,NW,319,1.0,10.0,89,0.03,,,0.03,WUHU216DAVISVP2,2013-07-10 13:06:00,
2013-07-10 08:11:00,75.7,72.2,29.94,South,190,1.0,10.0,89,0.03,,,0.03,WUHU216DAVISVP2,2013-07-10 13:11:00,
2013-07-10 08:16:00,75.5,72.4,29.93,South,188,4.0,6.0,90,0.03,,,0.03,WUHU216DAVISVP2,2013-07-10 13:16:00,
2013-07-10 08:21:00,75.3,72.2,29.93,SW,229,2.0,5.0,90,0.03,,,0.03,WUHU216DAVISVP2,2013-07-10 13:21:00,
2013-07-10 08:26:00,75.1,72.0,29.92,SSW,210,1.0,3.0,90,0.03,,,0.03,WUHU216DAVISVP2,2013-07-10 13:26:00,
2013-07-10 08:31:00,75.0,71.9,29.92,WNW,283,1.0,4.0,90,0.04,,,0.04,WUHU216DAVISVP2,2013-07-10 13:31:00,
2013-07-10 08:36:00,74.9,72.1,29.92,West,281,0.0,5.0,91,0.04,,,0.04,WUHU216DAVISVP2,2013-07-10 13:36:00,
2013-07-10 08:41:00,74.8,72.0,29.92,ENE,60,2.0,5.0,91,0.04,,,0.04,WUHU216DAVISVP2,2013-07-10 13:41:00,
2013-07-10 08:46:00,74.8,72.3,29.92,East,80,0.0,4.0,92,0.03,,,0.04,WUHU216DAVISVP2,2013-07-10 13:46:00,
2013-07-10 08:51:00,74.7,72.2,29.92,ENE,72,0.0,3.0,92,0.03,,,0.04,WUHU216DAVISVP2,2013-07-10 13:51:00,
2013-07-10 08:56:00,74.7,72.2,29.92,ENE,75,0.0,3.0,92,0.02,,,0.04,WUHU216DAVISVP2,2013-07-10 13:56:00,
2013-07-10 09:01:00,74.7,72.2,29.91,ENE,64,5.0,7.0,92,0.01,,,0.04,WUHU216DAVISVP2,2013-07-10 14:01:00,
2013-07-10 09:06:00,74.8,72.3,29.91,ENE,77,5.0,7.0,92,0.01,,,0.04,WUHU216DAVISVP2,2013-07-10 14:06:00,
2013-07-10 09:11:00,74.9,72.1,29.91,NE,38,2.0,7.0,91,0.01,,,0.04,WUHU216DAVISVP2,2013-07-10 14:11:00,
2013-07-10 09:16:00,75.3,72.5,29.94,NW,323,7.0,13.0,91,0.01,,,0.04,WUHU216DAVISVP2,2013-07-10 14:16:00,
2013-07-10 09:21:00,75.5,72.0,29.94,WSW,240,5.0,13.0,89,0.01,,,0.04,WUHU216DAVISVP2,2013-07-10 14:21:00,
2013-07-10 09:26:00,75.7,72.5,29.95,WSW,251,9.0,9.0,90,0.01,,,0.04,WUHU216DAVISVP2,2013-07-10 14:26:00,
2013-07-10 09:31:00,75.7,72.5,29.94,SSW,198,3.0,9.0,90,0.00,,,0.04,WUHU216DAVISVP2,2013-07-10 14:31:00,
2013-07-10 09:36:00,75.9,72.8,29.95,WSW,243,0.0,8.0,90,0.00,,,0.04,WUHU216DAVISVP2,2013-07-10 14:36:00,
2013-07-10 09:41:00,76.1,72.6,29.94,West,279,0.0,6.0,89,0.00,,,0.04,WUHU216DAVISVP2,2013-07-10 14:41:00,
2013-07-10 09:46:00,76.1,72.6,29.94,NNW,333,2.0,3.0,89,0.00,,,0.04,WUHU216DAVISVP2,2013-07-10 14:46:00,
2013-07-10 09:51:00,76.2,72.4,29.95,NNW,333,2.0,3.0,88,0.00,,,0.04,WUHU216DAVISVP2,2013-07-10 14:51:00,
2013-07-10 09:56:00,76.2,72.1,29.95,WNW,292,1.0,3.0,87,0.00,,,0.04,WUHU216DAVISVP2,2013-07-10 14:56:00,
2013-07-10 10:01:00,76.1,72.0,29.95,West,274,0.0,3.0,87,0.00,,,0.04,WUHU216DAVISVP2,2013-07-10 15:01:00,
2013-07-10 10:06:00,76.2,72.1,29.95,West,276,3.0,3.0,87,0.00,,,0.04,WUHU216DAVISVP2,2013-07-10 15:06:00,
2013-07-10 10:11:00,76.3,72.2,29.95,WSW,248,2.0,3.0,87,0.00,,,0.04,WUHU216DAVISVP2,2013-07-10 15:11:00,
2013-07-10 10:16:00,76.4,71.9,29.95,SSW,212,0.0,3.0,86,0.00,,,0.04,WUHU216DAVISVP2,2013-07-10 15:16:00,
2013-07-10 10:21:00,76.8,72.3,29.95,West,271,3.0,3.0,86,0.00,,,0.04,WUHU216DAVISVP2,2013-07-10 15:21:00,
2013-07-10 10:26:00,77.1,72.3,29.95,West,274,3.0,4.0,85,0.00,,,0.04,WUHU216DAVISVP2,2013-07-10 15:26:00,
2013-07-10 10:31:00,77.4,72.6,29.95,WSW,244,2.0,4.0,85,0.00,,,0.04,WUHU216DAVISVP2,2013-07-10 15:31:00,
2013-07-10 10:36:00,77.9,72.4,29.95,WSW,249,1.0,5.0,83,0.00,,,0.04,WUHU216DAVISVP2,2013-07-10 15:36:00,
2013-07-10 10:41:00,78.3,72.4,29.95,South,179,3.0,6.0,82,0.00,,,0.04,WUHU216DAVISVP2,2013-07-10 15:41:00,
2013-07-10 10:46:00,78.6,72.4,29.95,SW,215,1.0,6.0,81,0.00,,,0.04,WUHU216DAVISVP2,2013-07-10 15:46:00,
2013-07-10 10:51:00,78.7,72.8,29.95,WSW,244,3.0,6.0,82,0.00,,,0.04,WUHU216DAVISVP2,2013-07-10 15:51:00,
2013-07-10 10:56:00,78.6,72.4,29.95,West,264,4.0,6.0,81,0.00,,,0.04,WUHU216DAVISVP2,2013-07-10 15:56:00,
2013-07-10 11:01:00,78.6,72.6,29.96,West,269,3.0,6.0,82,0.00,,,0.04,WUHU216DAVISVP2,2013-07-10 16:01:00,
2013-07-10 11:06:00,78.5,72.5,29.96,West,263,2.0,6.0,82,0.00,,,0.04,WUHU216DAVISVP2,2013-07-10 16:06:00,
2013-07-10 11:11:00,78.5,72.6,29.95,WNW,288,1.0,6.0,82,0.00,,,0.04,WUHU216DAVISVP2,2013-07-10 16:11:00,
2013-07-10 11:16:00,78.6,72.7,29.95,SW,219,1.0,2.0,82,0.00,,,0.04,WUHU216DAVISVP2,2013-07-10 16:16:00,
2013-07-10 11:21:00,78.8,73.3,29.94,SW,218,2.0,3.0,83,0.00,,,0.04,WUHU216DAVISVP2,2013-07-10 16:21:00,
2013-07-10 11:26:00,79.0,73.5,29.94,SW,222,0.0,3.0,83,0.00,,,0.04,WUHU216DAVISVP2,2013-07-10 16:26:00,
2013-07-10 11:31:00,79.2,73.0,29.94,SW,225,0.0,2.0,81,0.00,,,0.04,WUHU216DAVISVP2,2013-07-10 16:31:00,
2013-07-10 11:36:00,79.5,72.9,29.95,SSW,212,3.0,3.0,80,0.00,,,0.04,WUHU216DAVISVP2,2013-07-10 16:36:00,
2013-07-10 11:41:00,79.7,72.7,29.95,West,278,0.0,3.0,79,0.00,,,0.04,WUHU216DAVISVP2,2013-07-10 16:41:00,
2013-07-10 11:46:00,79.9,72.9,29.95,WSW,255,0.0,3.0,79,0.00,,,0.04,WUHU216DAVISVP2,2013-07-10 16:46:00,
2013-07-10 11:51:00,80.4,73.8,29.95,WSW,254,0.0,2.0,80,0.00,,,0.04,WUHU216DAVISVP2,2013-07-10 16:51:00,
2013-07-10 11:56:00,81.0,73.6,29.95,SSW,210,2.0,2.0,78,0.00,,,0.04,WUHU216DAVISVP2,2013-07-10 16:56:00,
2013-07-10 12:01:00,80.9,73.2,29.94,SSW,206,0.0,2.0,77,0.00,,,0.04,WUHU216DAVISVP2,2013-07-10 17:01:00,
2013-07-10 12:06:00,80.8,72.9,29.95,ENE,65,0.0,2.0,77,0.00,,,0.04,WUHU216DAVISVP2,2013-07-10 17:06:00,
2013-07-10 12:11:00,80.7,73.6,29.95,ENE,72,2.0,3.0,79,0.00,,,0.04,WUHU216DAVISVP2,2013-07-10 17:11:00,
2013-07-10 12:16:00,80.4,74.0,29.95,ENE,66,0.0,3.0,81,0.00,,,0.04,WUHU216DAVISVP2,2013-07-10 17:16:00,
2013-07-10 12:21:00,80.1,74.2,29.96,ENE,63,1.0,5.0,82,0.00,,,0.04,WUHU216DAVISVP2,2013-07-10 17:21:00,
2013-07-10 12:26:00,80.0,74.1,29.96,ENE,72,3.0,5.0,82,0.00,,,0.04,WUHU216DAVISVP2,2013-07-10 17:26:00,
2013-07-10 12:31:00,80.1,74.5,29.96,NNW,331,0.0,4.0,83,0.00,,,0.04,WUHU216DAVISVP2,2013-07-10 17:31:00,
2013-07-10 12:36:00,80.4,74.1,29.96,ENE,63,3.0,3.0,81,0.00,,,0.04,WUHU216DAVISVP2,2013-07-10 17:36:00,
2013-07-10 12:41:00,80.2,72.9,29.96,East,89,3.0,7.0,78,0.00,,,0.04,WUHU216DAVISVP2,2013-07-10 17:41:00,
2013-07-10 12:46:00,80.2,72.5,29.96,ENE,72,4.0,7.0,77,0.00,,,0.04,WUHU216DAVISVP2,2013-07-10 17:46:00,
2013-07-10 12:51:00,80.4,72.7,29.95,ENE,58,1.0,6.0,77,0.00,,,0.04,WUHU216DAVISVP2,2013-07-10 17:51:00,
2013-07-10 12:56:00,80.7,71.8,29.94,ENE,72,2.0,7.0,74,0.00,,,0.04,WUHU216DAVISVP2,2013-07-10 17:56:00,
2013-07-10 13:01:00,81.0,71.3,29.94,ENE,76,4.0,7.0,72,0.00,,,0.04,WUHU216DAVISVP2,2013-07-10 18:01:00,
2013-07-10 13:06:00,81.1,71.6,29.94,East,89,1.0,5.0,73,0.00,,,0.04,WUHU216DAVISVP2,2013-07-10 18:06:00,
2013-07-10 13:11:00,81.5,72.0,29.96,NNW,331,3.0,5.0,73,0.00,,,0.04,WUHU216DAVISVP2,2013-07-10 18:11:00,
2013-07-10 13:16:00,81.7,71.0,29.96,NW,314,0.0,4.0,70,0.00,,,0.04,WUHU216DAVISVP2,2013-07-10 18:16:00,
2013-07-10 13:21:00,81.8,71.9,29.97,SW,224,1.0,4.0,72,0.00,,,0.04,WUHU216DAVISVP2,2013-07-10 18:21:00,
2013-07-10 13:26:00,81.7,71.2,29.96,North,356,3.0,4.0,70,0.00,,,0.04,WUHU216DAVISVP2,2013-07-10 18:26:00,
2013-07-10 13:31:00,81.7,72.0,29.96,NW,309,1.0,3.0,72,0.00,,,0.04,WUHU216DAVISVP2,2013-07-10 18:31:00,
2013-07-10 13:36:00,81.8,71.7,29.96,WSW,252,0.0,3.0,71,0.00,,,0.04,WUHU216DAVISVP2,2013-07-10 18:36:00,
2013-07-10 13:41:00,82.0,70.6,29.95,SW,215,2.0,2.0,68,0.00,,,0.04,WUHU216DAVISVP2,2013-07-10 18:41:00,
2013-07-10 13:46:00,81.9,71.8,29.95,WNW,282,2.0,4.0,71,0.00,,,0.04,WUHU216DAVISVP2,2013-07-10 18:46:00,
2013-07-10 13:51:00,82.1,71.2,29.95,WNW,285,3.0,4.0,69,0.00,,,0.04,WUHU216DAVISVP2,2013-07-10 18:51:00,
2013-07-10 13:56:00,82.2,72.1,29.95,SSW,212,3.0,3.0,71,0.00,,,0.04,WUHU216DAVISVP2,2013-07-10 18:56:00,
2013-07-10 14:01:00,81.9,70.5,29.94,WSW,249,0.0,4.0,68,0.00,,,0.04,WUHU216DAVISVP2,2013-07-10 19:01:00,
2013-07-10 14:06:00,82.5,71.5,29.94,West,274,0.0,4.0,69,0.00,,,0.04,WUHU216DAVISVP2,2013-07-10 19:06:00,
2013-07-10 14:11:00,82.7,71.3,29.93,WSW,246,1.0,4.0,68,0.00,,,0.04,WUHU216DAVISVP2,2013-07-10 19:11:00,
2013-07-10 14:16:00,83.4,72.4,29.93,WSW,246,1.0,4.0,69,0.00,,,0.04,WUHU216DAVISVP2,2013-07-10 19:16:00,
2013-07-10 14:21:00,84.4,72.1,29.92,North,356,1.0,3.0,66,0.00,,,0.04,WUHU216DAVISVP2,2013-07-10 19:21:00,
2013-07-10 14:26:00,85.2,72.8,29.92,ESE,110,1.0,2.0,66,0.00,,,0.04,WUHU216DAVISVP2,2013-07-10 19:26:00,
2013-07-10 14:31:00,85.5,73.3,29.92,WSW,238,4.0,4.0,67,0.00,,,0.04,WUHU216DAVISVP2,2013-07-10 19:31:00,
2013-07-10 14:36:00,85.3,72.6,29.92,SE,134,0.0,6.0,66,0.00,,,0.04,WUHU216DAVISVP2,2013-07-10 19:36:00,
2013-07-10 14:41:00,85.6,73.8,29.91,West,262,0.0,6.0,68,0.00,,,0.04,WUHU216DAVISVP2,2013-07-10 19:41:00,
2013-07-10 14:46:00,85.8,73.8,29.91,South,174,2.0,4.0,67,0.00,,,0.04,WUHU216DAVISVP2,2013-07-10 19:46:00,
2013-07-10 14:51:00,86.1,74.1,29.91,SSW,195,3.0,4.0,67,0.00,,,0.04,WUHU216DAVISVP2,2013-07-10 19:51:00,
2013-07-10 14:56:00,85.5,72.7,29.91,SW,227,2.0,7.0,65,0.00,,,0.04,WUHU216DAVISVP2,2013-07-10 19:56:00,
2013-07-10 15:01:00,85.5,73.1,29.90,South,186,3.0,7.0,66,0.00,,,0.04,WUHU216DAVISVP2,2013-07-10 20:01:00,
2013-07-10 15:06:00,85.5,74.0,29.90,SSW,202,1.0,7.0,68,0.00,,,0.04,WUHU216DAVISVP2,2013-07-10 20:06:00,
2013-07-10 15:11:00,85.3,74.2,29.89,SW,217,0.0,7.0,69,0.00,,,0.04,WUHU216DAVISVP2,2013-07-10 20:11:00,
2013-07-10 15:16:00,85.8,74.3,29.89,South,176,1.0,5.0,68,0.00,,,0.04,WUHU216DAVISVP2,2013-07-10 20:16:00,
2013-07-10 15:21:00,86.0,74.0,29.89,SW,232,5.0,6.0,67,0.00,,,0.04,WUHU216DAVISVP2,2013-07-10 20:21:00,
2013-07-10 15:26:00,85.8,74.3,29.89,SW,220,2.0,6.0,68,0.00,,,0.04,WUHU216DAVISVP2,2013-07-10 20:26:00,
2013-07-10 15:31:00,86.2,74.2,29.89,SW,232,2.0,5.0,67,0.00,,,0.04,WUHU216DAVISVP2,2013-07-10 20:31:00,
2013-07-10 15:36:00,86.2,72.9,29.89,SW,217,5.0,6.0,64,0.00,,,0.04,WUHU216DAVISVP2,2013-07-10 20:36:00,
2013-07-10 15:41:00,86.1,73.4,29.89,West,259,2.0,6.0,66,0.00,,,0.04,WUHU216DAVISVP2,2013-07-10 20:41:00,
2013-07-10 15:46:00,86.3,73.6,29.89,WNW,290,4.0,5.0,66,0.00,,,0.04,WUHU216DAVISVP2,2013-07-10 20:46:00,
2013-07-10 15:51:00,86.6,75.1,29.88,SW,222,8.0,8.0,68,0.00,,,0.04,WUHU216DAVISVP2,2013-07-10 20:51:00,
2013-07-10 15:56:00,86.0,74.5,29.88,WSW,243,5.0,8.0,68,0.00,,,0.04,WUHU216DAVISVP2,2013-07-10 20:56:00,
2013-07-10 16:01:00,85.9,75.2,29.88,SSW,207,1.0,7.0,70,0.00,,,0.04,WUHU216DAVISVP2,2013-07-10 21:01:00,
2013-07-10 16:06:00,86.2,74.7,29.88,West,266,4.0,10.0,68,0.00,,,0.04,WUHU216DAVISVP2,2013-07-10 21:06:00,
2013-07-10 16:11:00,86.4,75.3,29.88,West,271,3.0,10.0,69,0.00,,,0.04,WUHU216DAVISVP2,2013-07-10 21:11:00,
2013-07-10 16:16:00,86.3,76.0,29.88,SSW,208,1.0,8.0,71,0.00,,,0.04,WUHU216DAVISVP2,2013-07-10 21:16:00,
2013-07-10 16:21:00,86.8,76.5,29.88,NW,309,8.0,10.0,71,0.00,,,0.04,WUHU216DAVISVP2,2013-07-10 21:21:00,
2013-07-10 16:26:00,85.7,75.0,29.88,SW,216,3.0,10.0,70,0.00,,,0.04,WUHU216DAVISVP2,2013-07-10 21:26:00,
2013-07-10 16:31:00,86.0,74.9,29.88,SSW,201,4.0,8.0,69,0.00,,,0.04,WUHU216DAVISVP2,2013-07-10 21:31:00,
2013-07-10 16:36:00,86.0,74.6,29.87,WNW,291,6.0,8.0,69,0.00,,,0.04,WUHU216DAVISVP2,2013-07-10 21:36:00,
2013-07-10 16:41:00,86.0,75.9,29.88,WNW,283,6.0,10.0,72,0.00,,,0.04,WUHU216DAVISVP2,2013-07-10 21:41:00,
2013-07-10 16:46:00,86.3,75.2,29.88,NW,311,4.0,10.0,69,0.00,,,0.04,WUHU216DAVISVP2,2013-07-10 21:46:00,
2013-07-10 16:51:00,86.2,75.1,29.88,West,276,9.0,14.0,69,0.00,,,0.04,WUHU216DAVISVP2,2013-07-10 21:51:00,
2013-07-10 16:56:00,85.2,74.6,29.88,WNW,283,4.0,14.0,70,0.00,,,0.04,WUHU216DAVISVP2,2013-07-10 21:56:00,
2013-07-10 17:02:00,84.9,74.7,29.88,WNW,298,7.0,9.0,71,0.00,,,0.04,WUHU216DAVISVP2,2013-07-10 22:02:00,
2013-07-10 17:06:00,85.3,75.5,29.88,WNW,302,1.0,8.0,72,0.00,,,0.04,WUHU216DAVISVP2,2013-07-10 22:06:00,
2013-07-10 17:12:00,85.2,75.0,29.88,WNW,287,4.0,8.0,71,0.00,,,0.04,WUHU216DAVISVP2,2013-07-10 22:12:00,
2013-07-10 17:17:00,84.6,74.8,29.88,North,358,8.0,9.0,72,0.00,,,0.04,WUHU216DAVISVP2,2013-07-10 22:17:00,
2013-07-10 17:21:00,84.2,74.8,29.88,WNW,285,6.0,9.0,73,0.00,,,0.04,WUHU216DAVISVP2,2013-07-10 22:21:00,
2013-07-10 17:27:00,84.5,75.3,29.88,NNW,327,3.0,9.0,74,0.00,,,0.04,WUHU216DAVISVP2,2013-07-10 22:27:00,
2013-07-10 17:31:00,84.6,75.0,29.88,WNW,301,2.0,9.0,73,0.00,,,0.04,WUHU216DAVISVP2,2013-07-10 22:31:00,
2013-07-10 17:37:00,84.2,74.8,29.88,NNW,347,3.0,6.0,73,0.00,,,0.04,WUHU216DAVISVP2,2013-07-10 22:37:00,
2013-07-10 17:42:00,83.9,74.9,29.88,NW,316,1.0,6.0,74,0.00,,,0.04,WUHU216DAVISVP2,2013-07-10 22:42:00,
2013-07-10 17:47:00,83.7,74.7,29.88,WNW,293,0.0,5.0,74,0.00,,,0.04,WUHU216DAVISVP2,2013-07-10 22:47:00,
2013-07-10 17:52:00,83.5,74.5,29.88,NNW,341,1.0,4.0,74,0.00,,,0.04,WUHU216DAVISVP2,2013-07-10 22:52:00,
2013-07-10 17:57:00,83.3,75.1,29.88,West,274,1.0,6.0,76,0.00,,,0.04,WUHU216DAVISVP2,2013-07-10 22:57:00,
2013-07-10 18:02:00,83.1,74.5,29.88,SSW,212,0.0,6.0,75,0.00,,,0.04,WUHU216DAVISVP2,2013-07-10 23:02:00,
2013-07-10 18:07:00,83.0,74.8,29.88,WSW,252,1.0,3.0,76,0.00,,,0.04,WUHU216DAVISVP2,2013-07-10 23:07:00,
2013-07-10 18:12:00,82.9,75.1,29.88,WSW,245,2.0,4.0,77,0.00,,,0.04,WUHU216DAVISVP2,2013-07-10 23:12:00,
2013-07-10 18:17:00,82.8,74.8,29.88,SW,220,2.0,5.0,77,0.00,,,0.04,WUHU216DAVISVP2,2013-07-10 23:17:00,
2013-07-10 18:22:00,82.6,75.2,29.89,SSW,206,3.0,5.0,78,0.00,,,0.04,WUHU216DAVISVP2,2013-07-10 23:22:00,
2013-07-10 18:27:00,82.3,74.9,29.89,West,266,0.0,6.0,78,0.00,,,0.04,WUHU216DAVISVP2,2013-07-10 23:27:00,
2013-07-10 18:32:00,82.2,75.2,29.89,West,264,2.0,6.0,79,0.00,,,0.04,WUHU216DAVISVP2,2013-07-10 23:32:00,
2013-07-10 18:37:00,82.1,74.7,29.89,East,87,1.0,4.0,78,0.00,,,0.04,WUHU216DAVISVP2,2013-07-10 23:37:00,
2013-07-10 18:42:00,82.2,75.2,29.89,SW,218,0.0,6.0,79,0.00,,,0.04,WUHU216DAVISVP2,2013-07-10 23:42:00,
2013-07-10 18:47:00,82.3,75.3,29.89,WSW,237,0.0,6.0,79,0.00,,,0.04,WUHU216DAVISVP2,2013-07-10 23:47:00,
2013-07-10 18:52:00,82.1,75.1,29.89,SW,217,0.0,3.0,79,0.00,,,0.04,WUHU216DAVISVP2,2013-07-10 23:52:00,
2013-07-10 18:57:00,82.0,74.8,29.89,SW,236,2.0,3.0,79,0.00,,,0.04,WUHU216DAVISVP2,2013-07-10 23:57:00,
2013-07-10 19:02:00,82.1,75.1,29.89,SW,228,3.0,3.0,79,0.00,,,0.04,WUHU216DAVISVP2,2013-07-11 00:02:00,
2013-07-10 19:07:00,82.5,75.1,29.89,SW,217,0.0,3.0,78,0.00,,,0.04,WUHU216DAVISVP2,2013-07-11 00:07:00,
2013-07-10 19:12:00,82.4,74.8,29.88,West,269,1.0,3.0,78,0.00,,,0.04,WUHU216DAVISVP2,2013-07-11 00:12:00,
2013-07-10 19:17:00,82.2,74.7,29.89,West,259,2.0,3.0,78,0.00,,,0.04,WUHU216DAVISVP2,2013-07-11 00:17:00,
2013-07-10 19:22:00,82.3,75.3,29.89,West,266,1.0,2.0,79,0.00,,,0.04,WUHU216DAVISVP2,2013-07-11 00:22:00,
2013-07-10 19:27:00,82.3,75.3,29.89,WSW,240,0.0,3.0,79,0.00,,,0.04,WUHU216DAVISVP2,2013-07-11 00:27:00,
2013-07-10 19:32:00,82.0,75.3,29.89,SW,233,0.0,3.0,80,0.00,,,0.04,WUHU216DAVISVP2,2013-07-11 00:32:00,
2013-07-10 19:37:00,81.6,75.2,29.89,SSW,208,0.0,2.0,81,0.00,,,0.04,WUHU216DAVISVP2,2013-07-11 00:37:00,
2013-07-10 19:42:00,81.3,75.0,29.89,SW,224,0.0,2.0,81,0.00,,,0.04,WUHU216DAVISVP2,2013-07-11 00:42:00,
2013-07-10 19:47:00,81.0,75.1,29.89,WNW,286,1.0,2.0,82,0.00,,,0.04,WUHU216DAVISVP2,2013-07-11 00:47:00,
2013-07-10 19:52:00,80.8,75.2,29.90,West,279,0.0,2.0,83,0.00,,,0.04,WUHU216DAVISVP2,2013-07-11 00:52:00,
2013-07-10 19:57:00,80.6,75.0,29.89,West,280,0.0,1.0,83,0.00,,,0.04,WUHU216DAVISVP2,2013-07-11 00:57:00,
2013-07-10 20:02:00,80.4,74.8,29.89,WSW,237,1.0,1.0,83,0.00,,,0.04,WUHU216DAVISVP2,2013-07-11 01:02:00,
2013-07-10 20:07:00,80.2,75.0,29.89,SW,225,0.0,1.0,84,0.00,,,0.04,WUHU216DAVISVP2,2013-07-11 01:07:00,
2013-07-10 20:12:00,80.0,74.8,29.90,WSW,237,0.0,1.0,84,0.00,,,0.04,WUHU216DAVISVP2,2013-07-11 01:12:00,
2013-07-10 20:17:00,79.8,74.9,29.90,WSW,237,0.0,1.0,85,0.00,,,0.04,WUHU216DAVISVP2,2013-07-11 01:17:00,
2013-07-10 20:22:00,79.6,74.7,29.90,WSW,237,0.0,1.0,85,0.00,,,0.04,WUHU216DAVISVP2,2013-07-11 01:22:00,
2013-07-10 20:27:00,79.5,74.9,29.90,WSW,237,0.0,1.0,86,0.00,,,0.04,WUHU216DAVISVP2,2013-07-11 01:27:00,
2013-07-10 20:32:00,79.3,74.8,29.90,WSW,237,0.0,1.0,86,0.00,,,0.04,WUHU216DAVISVP2,2013-07-11 01:32:00,
2013-07-10 20:37:00,79.2,75.0,29.90,SW,221,0.0,0.0,87,0.00,,,0.04,WUHU216DAVISVP2,2013-07-11 01:37:00,
2013-07-10 20:42:00,78.9,75.1,29.91,SW,222,0.0,0.0,88,0.00,,,0.04,WUHU216DAVISVP2,2013-07-11 01:42:00,
2013-07-10 20:47:00,78.7,74.9,29.91,SW,222,0.0,0.0,88,0.00,,,0.04,WUHU216DAVISVP2,2013-07-11 01:47:00,
2013-07-10 20:52:00,78.6,74.8,29.91,SW,222,0.0,0.0,88,0.00,,,0.04,WUHU216DAVISVP2,2013-07-11 01:52:00,
2013-07-10 20:57:00,78.6,74.8,29.91,SW,222,0.0,0.0,88,0.00,,,0.04,WUHU216DAVISVP2,2013-07-11 01:57:00,
2013-07-10 21:02:00,78.6,74.8,29.91,SW,222,0.0,0.0,88,0.00,,,0.04,WUHU216DAVISVP2,2013-07-11 02:02:00,
2013-07-10 21:07:00,78.6,74.4,29.91,SW,224,0.0,0.0,87,0.00,,,0.04,WUHU216DAVISVP2,2013-07-11 02:07:00,
2013-07-10 21:12:00,78.7,74.5,29.92,SW,214,0.0,0.0,87,0.00,,,0.04,WUHU216DAVISVP2,2013-07-11 02:12:00,
2013-07-10 21:17:00,78.7,74.9,29.92,SW,214,0.0,0.0,88,0.00,,,0.04,WUHU216DAVISVP2,2013-07-11 02:17:00,
2013-07-10 21:22:00,78.6,74.8,29.92,SW,214,0.0,0.0,88,0.00,,,0.04,WUHU216DAVISVP2,2013-07-11 02:22:00,
2013-07-10 21:27:00,78.6,74.8,29.92,SW,233,0.0,0.0,88,0.00,,,0.04,WUHU216DAVISVP2,2013-07-11 02:27:00,
2013-07-10 21:32:00,78.6,74.8,29.92,SW,234,0.0,0.0,88,0.00,,,0.04,WUHU216DAVISVP2,2013-07-11 02:32:00,
2013-07-10 21:37:00,78.5,75.0,29.93,SW,234,0.0,0.0,89,0.00,,,0.04,WUHU216DAVISVP2,2013-07-11 02:37:00,
2013-07-10 21:42:00,78.4,74.9,29.93,SW,234,0.0,0.0,89,0.00,,,0.04,WUHU216DAVISVP2,2013-07-11 02:42:00,
2013-07-10 21:47:00,78.2,74.7,29.93,SW,234,0.0,0.0,89,0.00,,,0.04,WUHU216DAVISVP2,2013-07-11 02:47:00,
2013-07-10 21:52:00,78.0,74.8,29.93,SW,234,0.0,0.0,90,0.00,,,0.04,WUHU216DAVISVP2,2013-07-11 02:52:00,
2013-07-10 21:57:00,77.8,74.6,29.93,SW,234,0.0,0.0,90,0.00,,,0.04,WUHU216DAVISVP2,2013-07-11 02:57:00,
2013-07-10 22:02:00,77.5,74.3,29.93,SW,234,0.0,0.0,90,0.00,,,0.04,WUHU216DAVISVP2,2013-07-11 03:02:00,
2013-07-10 22:07:00,77.3,74.5,29.93,SW,234,0.0,0.0,91,0.00,,,0.04,WUHU216DAVISVP2,2013-07-11 03:07:00,
2013-07-10 22:12:00,77.2,74.7,29.93,SW,234,0.0,0.0,92,0.00,,,0.04,WUHU216DAVISVP2,2013-07-11 03:12:00,
2013-07-10 22:17:00,77.0,74.5,29.93,SW,234,0.0,0.0,92,0.00,,,0.04,WUHU216DAVISVP2,2013-07-11 03:17:00,
2013-07-10 22:22:00,76.8,74.3,29.93,SW,234,0.0,0.0,92,0.00,,,0.04,WUHU216DAVISVP2,2013-07-11 03:22:00,
2013-07-10 22:27:00,76.6,74.4,29.94,SW,234,0.0,0.0,93,0.00,,,0.04,WUHU216DAVISVP2,2013-07-11 03:27:00,
2013-07-10 22:32:00,76.5,74.3,29.94,SW,234,0.0,0.0,93,0.00,,,0.04,WUHU216DAVISVP2,2013-07-11 03:32:00,
2013-07-10 22:37:00,76.4,74.2,29.93,SW,234,0.0,0.0,93,0.00,,,0.04,WUHU216DAVISVP2,2013-07-11 03:37:00,
2013-07-10 22:42:00,76.4,74.2,29.93,SW,234,0.0,0.0,93,0.00,,,0.04,WUHU216DAVISVP2,2013-07-11 03:42:00,
2013-07-10 22:47:00,76.4,74.2,29.94,SW,234,0.0,0.0,93,0.00,,,0.04,WUHU216DAVISVP2,2013-07-11 03:47:00,
2013-07-10 22:52:00,76.4,74.2,29.94,SW,234,0.0,0.0,93,0.00,,,0.04,WUHU216DAVISVP2,2013-07-11 03:52:00,
2013-07-10 22:57:00,76.3,74.1,29.94,SW,234,0.0,0.0,93,0.00,,,0.04,WUHU216DAVISVP2,2013-07-11 03:57:00,
2013-07-10 23:01:00,76.3,74.4,29.94,SW,235,0.0,0.0,94,0.00,,,0.04,WUHU216DAVISVP2,2013-07-11 04:01:00,
2013-07-10 23:06:00,76.2,74.3,29.94,WSW,242,0.0,0.0,94,0.00,,,0.04,WUHU216DAVISVP2,2013-07-11 04:06:00,
2013-07-10 23:11:00,76.1,74.2,29.94,WSW,242,0.0,0.0,94,0.00,,,0.04,WUHU216DAVISVP2,2013-07-11 04:11:00,
2013-07-10 23:16:00,75.9,74.0,29.94,WSW,242,0.0,0.0,94,0.00,,,0.04,WUHU216DAVISVP2,2013-07-11 04:16:00,
2013-07-10 23:21:00,75.8,73.9,29.94,WSW,242,0.0,0.0,94,0.00,,,0.04,WUHU216DAVISVP2,2013-07-11 04:21:00,
2013-07-10 23:26:00,75.7,73.8,29.94,WSW,242,0.0,0.0,94,0.00,,,0.04,WUHU216DAVISVP2,2013-07-11 04:26:00,
2013-07-10 23:31:00,75.6,73.7,29.94,WSW,242,0.0,0.0,94,0.00,,,0.04,WUHU216DAVISVP2,2013-07-11 04:31:00,
2013-07-10 23:36:00,75.5,73.9,29.94,NW,321,0.0,0.0,95,0.00,,,0.04,WUHU216DAVISVP2,2013-07-11 04:36:00,
2013-07-10 23:41:00,75.5,73.6,29.94,NW,322,0.0,0.0,94,0.00,,,0.04,WUHU216DAVISVP2,2013-07-11 04:41:00,
2013-07-10 23:46:00,75.5,73.6,29.94,NNW,335,0.0,0.0,94,0.00,,,0.04,WUHU216DAVISVP2,2013-07-11 04:46:00,
2013-07-10 23:51:00,75.5,73.6,29.94,NNW,335,2.0,3.0,94,0.00,,,0.04,WUHU216DAVISVP2,2013-07-11 04:51:00,
2013-07-10 23:56:00,75.7,73.5,29.94,NNW,345,0.0,3.0,93,0.00,,,0.04,WUHU216DAVISVP2,2013-07-11 04:56:00,